[[{"header":{"parameterUnit":"m.s-1","parameterCategory":1,"la1":30.2991,"la2":30.254,"lo1":-89.0895,"lo2":-89.0444,"dy":0.0017,"dx":0.0017,"nx":28,"ny":28,"refTime":"2024-03-07T03:00:00:Z","depth":0,"parameterNumber":2,"parameterNumberName":"U-component_of_WINDS"},"data":[0,0,0,0,0,0,0,0,0,0,0,0,0,0,0,0,0,0,0,0,0,0,0,0,0,0,0,0,0,0,0,0,0,0,0,0,0,0,0,0,0,0,0,0,0,0,0,0,0,0,0,0,0,0,0,0,0,0,-2.2096,-2.2096,0,-2.2071,-2.207,-2.207,-2.1958,-2.1956,-2.1953,-2.1951,-2.1928,-2.193,-2.1931,0,0,0,0,0,0,0,0,0,0,0,0,0,-2.2052,-2.2053,-2.2096,-2.2096,-2.2095,-2.2071,-2.207,-2.207,-2.1959,-2.1956,-2.1953,-2.195,-2.1927,-2.1929,-2.1932,0,0,0,0,0,0,0,0,0,0,0,0,0,-2.2053,-2.2054,-2.2096,-2.2037,-2.2031,-2.2071,-2.207,-2.207,-2.196,-2.1956,-2.1952,-2.1948,-2.1927,-2.1929,-2.1932,-2.2027,0,0,-2.194,-2.1941,0,0,0,0,0,0,0,0,-2.2054,-2.2055,-2.2046,-2.2041,-2.2035,-2.2014,-2.2046,-2.2056,-2.1961,-2.1987,-2.1951,-2.1946,-2.196,-2.196,-2.1963,-2.2026,-2.2025,-2.1941,-2.1942,-2.1943,-2.1944,0,0,0,0,0,0,0,-2.2054,-2.2056,-2.2086,-2.2046,-2.2039,-2.2013,-2.2009,-2.2048,-2.1996,-2.1984,-2.1976,-2.1975,-2.1956,-2.1961,-2.1962,-2.2025,-2.194,-2.1943,-2.1945,-2.1946,-2.2168,-2.2172,0,0,0,0,0,0,-2.2061,-2.2056,-2.2087,-2.2085,-2.2035,-2.2017,-2.2012,-2.2024,-2.1995,-2.1987,-2.1978,-2.1969,-2.1958,-2.1959,-2.1961,-2.2073,-2.1943,-2.1946,-2.1948,-2.2164,-2.2169,-2.2174,0,0,0,0,0,0,-2.2061,-2.2065,-2.2088,-2.2069,-2.2069,-2.2022,-2.2036,-2.2026,-2.2031,-2.199,-2.1981,-2.1992,-2.1955,-2.1957,-2.2012,-2.207,-2.1947,-2.195,-2.2159,-2.2165,-2.2171,-2.2297,0,0,0,0,0,0,-2.206,-2.2066,-2.21,-2.207,-2.2071,-2.2139,-2.204,-2.2028,-2.2036,-2.2024,-2.2001,-2.1994,-2.1952,-2.2009,-2.2015,-2.2072,-2.1952,-2.2153,-2.2162,-2.2169,-2.2287,-2.2307,-2.2323,0,0,0,0,0,-2.2059,-2.2136,-2.2103,-2.2107,-2.2113,-2.2142,-2.2143,-2.2093,-2.2041,-2.2076,-2.205,-2.1994,-2.2063,-2.2015,-2.2021,-2.208,-2.215,-2.2159,-2.2169,-2.2279,-2.2303,-2.2323,0,0,0,0,0,0,-2.2175,-2.2131,-2.2093,-2.2163,-2.2157,-2.2123,-2.2166,-2.2119,-2.2128,-2.2117,-2.2056,-2.2052,-2.2117,-2.2103,-2.2051,-2.2173,-2.2097,-2.2108,-2.2179,-2.2201,-2.2219,-2.2221,-2.1954,0,0,0,0,0,-2.2209,-2.2235,-2.2196,-2.2261,-2.226,-2.2214,-2.2225,-2.2187,-2.2179,-2.2176,-2.2154,-2.2149,-2.2169,-2.2184,-2.22,-2.2284,-2.2279,-2.2328,-2.2346,-2.2361,-2.2372,-2.2418,-2.244,-2.2205,-2.2205,-2.2205,0,0,-2.2279,-2.2258,-2.2278,-2.2284,-2.2275,-2.2305,-2.2213,-2.2248,-2.227,-2.2181,-2.2232,-2.2217,-2.2207,-2.2278,-2.2308,-2.2269,-2.2436,-2.2373,-2.2386,-2.2388,-2.243,-2.2453,-2.2473,-2.2212,-2.221,-2.2209,0,0,-2.2422,-2.2408,-2.2463,-2.2456,-2.2443,-2.2412,-2.2426,-2.2399,-2.2385,-2.2435,-2.237,-2.2396,-2.2432,-2.2429,-2.2432,-2.2577,-2.2527,-2.2584,-2.2679,-2.2724,-2.2743,-2.2759,-2.2813,-2.2833,-2.2595,-2.2595,-2.2595,0,-2.2511,-2.2553,-2.2497,-2.2537,-2.2543,-2.2463,-2.2519,-2.2515,-2.251,-2.2516,-2.2472,-2.2517,-2.2505,-2.2575,-2.2611,-2.2615,-2.263,-2.2587,-2.2745,-2.276,-2.2775,-2.2825,-2.2846,-2.2602,-2.2601,-2.2601,-2.26,0,-2.2664,-2.2694,-2.274,-2.2736,-2.2747,-2.2795,-2.2748,-2.2766,-2.2728,-2.2702,-2.2756,-2.2738,-2.2751,-2.2765,-2.2727,-2.2831,-2.2807,-2.2755,-2.2678,-2.2805,-2.2852,-2.2871,-2.2613,-2.261,-2.2608,-2.2606,0,0,-2.288,-2.2846,-2.2864,-2.2862,-2.2843,-2.2866,-2.2912,-2.2924,-2.2941,-2.294,-2.2978,-2.3012,-2.2964,-2.2967,-2.2929,-2.2969,-2.3089,-2.2912,-2.2911,-2.2948,-2.3204,-2.3245,-2.3268,-2.3055,-2.3058,-2.3061,-2.3206,0,-2.3018,-2.3093,-2.3045,-2.3128,-2.3157,-2.3083,-2.3123,-2.3117,-2.3095,-2.3117,-2.3093,-2.3118,-2.3052,-2.3054,-2.309,-2.3067,-2.314,-2.3055,-2.3092,-2.3094,-2.3098,-2.3292,-2.3335,-2.3472,-2.3223,-2.3226,-2.3229,0,-2.319,-2.3197,-2.3283,-2.3261,-2.3271,-2.3308,-2.3316,-2.3338,-2.333,-2.3311,-2.3317,-2.327,-2.3315,-2.3238,-2.3301,-2.3244,-2.3257,-2.3248,-2.3252,-2.3254,-2.317,-2.3303,-2.3515,-2.3536,-2.3257,-2.3254,-2.3252,0,-2.3342,-2.3372,-2.3428,-2.3429,-2.3404,-2.3432,-2.3423,-2.3411,-2.3423,-2.343,-2.3438,-2.3451,-2.3459,-2.3471,-2.3429,-2.3377,-2.3499,-2.3418,-2.3486,-2.3488,-2.3516,-2.3515,-2.3735,-2.3521,-2.3521,-2.3521,-2.352,0,-2.3502,-2.3559,-2.3496,-2.3531,-2.3593,-2.3538,-2.3601,-2.3584,-2.3575,-2.3607,-2.3543,-2.3575,-2.3517,-2.3543,-2.3511,-2.3569,-2.3572,-2.356,-2.3551,-2.3567,-2.3569,-2.3575,-2.3565,-2.3526,-2.3525,-2.3524,-2.3523,0,-2.3682,-2.3642,-2.3699,-2.3671,-2.3666,-2.3713,-2.3689,-2.3722,-2.3695,-2.3737,-2.3743,-2.3703,-2.373,-2.369,-2.3713,-2.3691,-2.3772,-2.3748,-2.3775,-2.3769,-2.384,-2.3835,-2.4073,-2.4103,-2.3869,-2.3871,-2.3873,0,-2.3788,-2.383,-2.3807,-2.3823,-2.3818,-2.3845,-2.3856,-2.3805,-2.382,-2.3816,-2.3849,-2.3871,-2.3886,-2.3934,-2.3908,-2.3926,-2.3903,-2.3985,-2.3905,-2.3921,-2.3907,-2.3906,-2.3911,-2.4002,-2.4005,-2.4007,-2.4009,0,-2.3981,-2.396,-2.3978,-2.3991,-2.4007,-2.4014,-2.4017,-2.4034,-2.398,-2.4,-2.4028,-2.404,-2.4064,-2.4088,-2.4099,-2.4091,-2.4043,-2.4035,-2.4052,-2.4069,-2.4084,-2.4079,-2.3822,-2.403,-2.4028,-2.4026,-2.4025,-2.4024,-2.4129,-2.4163,-2.4153,-2.4177,-2.4173,-2.4178,-2.4208,-2.4186,-2.4208,-2.4223,-2.4191,-2.4228,-2.4221,-2.4232,-2.423,-2.4258,-2.4222,-2.4247,-2.4253,-2.4261,-2.4273,-2.4078,-2.426,-2.4259,-2.4259,-2.4258,-2.4258,0,-2.432,-2.4311,-2.4333,-2.4339,-2.4358,-2.431,-2.4311,-2.4331,-2.4363,-2.4361,-2.4378,-2.4411,-2.4434,-2.441,-2.443,-2.4457,-2.4436,-2.4464,-2.4463,-2.4462,-2.4302,-2.4287,-2.4482,-2.4482,-2.4482,-2.4482,-2.4482,-2.4482,-2.4423,-2.4479,-2.4458,-2.4513,-2.4503,-2.4537,-2.4543,-2.4548,-2.4546,-2.4586,-2.4605,-2.4589,-2.4579,-2.4597,-2.4617,-2.461,-2.4621,-2.4658,-2.4643,-2.4495,-2.4473,-2.4452,-2.4437,-2.4661,-2.4661,-2.4801,-2.4802,-2.4803]},{"header":{"parameterUnit":"m.s-1","parameterCategory":1,"la1":30.2991,"la2":30.254,"lo1":-89.0895,"lo2":-89.0444,"dy":0.0017,"dx":0.0017,"nx":28,"ny":28,"refTime":"2024-03-07T03:00:00:Z","depth":0,"parameterNumber":3,"parameterNumberName":"V-component_of_WINDS"},"data":[0,0,0,0,0,0,0,0,0,0,0,0,0,0,0,0,0,0,0,0,0,0,0,0,0,0,0,0,0,0,0,0,0,0,0,0,0,0,0,0,0,0,0,0,0,0,0,0,0,0,0,0,0,0,0,0,0,0,0.3685,0.3685,0,0.369,0.369,0.369,0.3692,0.3692,0.3692,0.3692,0.3697,0.3697,0.3697,0,0,0,0,0,0,0,0,0,0,0,0,0,0.3676,0.3676,0.3685,0.3685,0.3685,0.369,0.369,0.369,0.3692,0.3692,0.3692,0.3692,0.3697,0.3697,0.3697,0,0,0,0,0,0,0,0,0,0,0,0,0,0.3681,0.3676,0.3685,0.3686,0.3687,0.369,0.369,0.369,0.3692,0.3692,0.3692,0.3692,0.3697,0.3697,0.3697,0.3699,0,0,0.3698,0.3698,0,0,0,0,0,0,0,0,0.368,0.3681,0.3686,0.3686,0.3686,0.369,0.3689,0.3693,0.3692,0.369,0.3692,0.3692,0.3695,0.3695,0.3696,0.3699,0.3699,0.3698,0.3698,0.3698,0.3698,0,0,0,0,0,0,0,0.368,0.3681,0.3687,0.3686,0.3686,0.3687,0.3688,0.369,0.3692,0.369,0.369,0.3691,0.3695,0.3696,0.3696,0.3699,0.3698,0.3698,0.3698,0.3698,0.3706,0.3706,0,0,0,0,0,0,0.3679,0.368,0.3687,0.3687,0.3683,0.3687,0.3688,0.3689,0.3692,0.3693,0.3691,0.3691,0.3695,0.3696,0.3696,0.37,0.3698,0.3698,0.3698,0.3706,0.3706,0.3706,0,0,0,0,0,0,0.3679,0.368,0.3686,0.3684,0.3685,0.3687,0.3689,0.3689,0.369,0.3693,0.3693,0.3692,0.3695,0.3696,0.3699,0.37,0.3698,0.3698,0.3706,0.3706,0.3706,0.3706,0,0,0,0,0,0,0.3679,0.368,0.368,0.3684,0.3685,0.3688,0.3689,0.3689,0.3691,0.3691,0.3694,0.3694,0.3695,0.3698,0.3699,0.37,0.3698,0.3706,0.3706,0.3706,0.3706,0.3706,0.3706,0,0,0,0,0,0.3679,0.3679,0.368,0.3681,0.3685,0.3688,0.3689,0.3691,0.3691,0.3692,0.3694,0.3694,0.37,0.3699,0.3699,0.37,0.3705,0.3706,0.3706,0.3705,0.3706,0.3706,0,0,0,0,0,0,0.3675,0.368,0.3681,0.3683,0.3685,0.3689,0.369,0.3691,0.3693,0.3693,0.3695,0.3696,0.3698,0.37,0.3698,0.3703,0.3703,0.3703,0.3702,0.3702,0.3703,0.3702,0.3699,0,0,0,0,0,0.3675,0.3677,0.3681,0.3682,0.3684,0.3687,0.3688,0.3689,0.3692,0.3693,0.3695,0.3697,0.37,0.3701,0.3703,0.3706,0.3707,0.3707,0.3707,0.3708,0.3708,0.371,0.3711,0.3707,0.3707,0.3707,0,0,0.3674,0.3677,0.3678,0.3682,0.3684,0.3686,0.3687,0.3689,0.3692,0.3693,0.3696,0.3698,0.3701,0.3704,0.3705,0.3705,0.3709,0.3708,0.3708,0.3708,0.3711,0.3711,0.3711,0.3707,0.3707,0.3707,0,0,0.3673,0.3675,0.3677,0.368,0.3684,0.3686,0.3686,0.369,0.3692,0.3695,0.3696,0.3699,0.3703,0.3705,0.3707,0.3709,0.371,0.371,0.3711,0.3713,0.3714,0.3714,0.3716,0.3716,0.371,0.371,0.371,0,0.3671,0.3675,0.3678,0.3681,0.3683,0.3685,0.3688,0.369,0.3694,0.3696,0.3696,0.3702,0.3704,0.3708,0.3709,0.371,0.3711,0.3709,0.3713,0.3714,0.3714,0.3716,0.3716,0.371,0.371,0.371,0.371,0,0.3673,0.3676,0.3677,0.3682,0.3684,0.3687,0.369,0.3693,0.3694,0.3697,0.3701,0.3703,0.3707,0.3708,0.3709,0.3713,0.3713,0.3713,0.3713,0.3715,0.3716,0.3717,0.371,0.371,0.371,0.371,0,0,0.3669,0.3677,0.3677,0.368,0.3685,0.3688,0.3691,0.3695,0.3697,0.37,0.3703,0.3708,0.3708,0.371,0.3712,0.3714,0.3717,0.3715,0.3715,0.3715,0.3723,0.3722,0.3723,0.3718,0.3718,0.3718,0.3722,0,0.367,0.3676,0.3679,0.3684,0.3687,0.369,0.3693,0.3697,0.37,0.3703,0.3706,0.3709,0.371,0.3711,0.3714,0.3716,0.3719,0.3716,0.3721,0.3721,0.372,0.3724,0.3723,0.3727,0.3723,0.3723,0.3723,0,0.367,0.3675,0.368,0.3686,0.3687,0.369,0.3695,0.3698,0.3703,0.3705,0.3708,0.371,0.3714,0.3714,0.372,0.3718,0.372,0.3722,0.3722,0.3723,0.3722,0.3724,0.3728,0.3728,0.3724,0.3724,0.3724,0,0.3668,0.3675,0.3679,0.3681,0.3688,0.369,0.3693,0.3698,0.3701,0.3705,0.3707,0.3712,0.3714,0.3718,0.3722,0.3721,0.3728,0.3727,0.3729,0.3729,0.373,0.373,0.3734,0.3732,0.3732,0.3732,0.3732,0,0.3668,0.3671,0.3678,0.3681,0.3685,0.3689,0.3693,0.3696,0.3701,0.3705,0.3708,0.3711,0.3716,0.372,0.3723,0.3728,0.3728,0.373,0.3731,0.373,0.373,0.3731,0.3731,0.3732,0.3732,0.3732,0.3732,0,0.3665,0.367,0.3675,0.3682,0.3684,0.3687,0.3693,0.3696,0.37,0.3704,0.3706,0.3711,0.3716,0.3721,0.3727,0.3729,0.3734,0.3735,0.3733,0.3733,0.3735,0.3735,0.374,0.3742,0.3738,0.3738,0.3738,0,0.3665,0.3667,0.3675,0.3678,0.3682,0.3686,0.369,0.3695,0.3698,0.3705,0.3707,0.3712,0.3717,0.3725,0.373,0.3735,0.3736,0.3738,0.3737,0.3736,0.3737,0.3736,0.3737,0.3738,0.3738,0.3738,0.3738,0,0.3664,0.3667,0.3671,0.3678,0.3682,0.3687,0.3691,0.3694,0.37,0.3704,0.3709,0.3713,0.3721,0.3726,0.3732,0.3736,0.3738,0.3738,0.3739,0.3738,0.3737,0.3738,0.3733,0.3738,0.3738,0.3738,0.3738,0.3738,0.3663,0.3666,0.3672,0.3678,0.3682,0.3687,0.3691,0.3696,0.3701,0.3707,0.371,0.3716,0.3722,0.3731,0.3735,0.374,0.374,0.3741,0.3741,0.3741,0.3741,0.3736,0.3741,0.3741,0.3741,0.3741,0.3741,0,0.3662,0.3667,0.3672,0.368,0.3684,0.3687,0.3693,0.3697,0.3702,0.3708,0.3713,0.372,0.3726,0.3732,0.3738,0.3741,0.3743,0.3743,0.3743,0.3744,0.3741,0.3739,0.3742,0.3742,0.3742,0.3742,0.3742,0.3742,0.3662,0.3668,0.3672,0.368,0.3685,0.3691,0.3695,0.37,0.3705,0.3713,0.3718,0.3722,0.3728,0.3735,0.3741,0.3743,0.3745,0.3745,0.3747,0.3744,0.3744,0.3743,0.3742,0.3745,0.3745,0.3749,0.375,0.375]}]]